Regional Weather Roundup
Issued by NWS Lake Charles, LA

Home | Current Version | Previous Version | Text Only | Print | Product List | Glossary On
Versions: 1 2 3 4 5 6 7 8 9 10 11 12 13 14 15 16 17 18 19 20 21 22 23 24 25
000
ASUS44 KLCH 112310
RWRLCH
REGIONAL WEATHER ROUNDUP
NATIONAL WEATHER SERVICE LAKE CHARLES LA
500 PM CST MON DEC 11 2017

Note: "fair" indicates few or no clouds below 12,000 feet with no
significant weather and/or obstructions to visibility.


ACROSS SOUTHEAST TEXAS

CITY           SKY/WX    TMP DP  RH WIND       PRES   REMARKS
BEAUMONT       CLEAR     64  48  56 S9        30.16S
BEAUMONT CITY  FAIR      68  39  35 SW8       30.16S
ORANGE         CLEAR     64  53  67 S3        30.17S
JASPER         CLOUDY    65  48  54 CALM      30.16S
$$

ACROSS CENTRAL LOUISIANA

CITY           SKY/WX    TMP DP  RH WIND       PRES   REMARKS
LEESVILLE      CLOUDY    63  45  50 SW3       30.12S HAZE
FULLERTON      FAIR      57  45  64 CALM      30.10S HAZE
ALEXANDRIA INT CLOUDY    63  43  48 S7        30.10S
ESLER FIELD    CLOUDY    63  41  44 S6        30.10F
DERIDDER       FAIR     N/A N/A N/A SW3       30.14F
OAKDALE        CLEAR     60  46  60 CALM      30.13F
OPELOUSAS      FAIR      63  44  49 SW7       30.13F
$$

ACROSS SOUTHWEST AND SOUTH CENTRAL LOUISIANA

CITY           SKY/WX    TMP DP  RH WIND       PRES   REMARKS
SULPHUR        CLEAR     62  51  66 S7        30.16F
LAKE CHARLES   CLEAR     62  52  69 S6        30.14F
CHENNAULT INT  NOT AVBL
CAMERON PHI      N/A     59  54  82 SW10G16   30.17F
DEQUINCY       FAIR      66  38  34 CALM      30.14S
JENNINGS       FAIR      63  51  64 SW8       30.15S
LAFAYETTE      CLEAR     63  45  51 SW10      30.15S
NEW IBERIA     CLEAR     62  43  49 SW9       30.16F
ABBEVILLE      FAIR      59  49  68 SW9       30.16S
PATTERSON      CLEAR     58  49  72 SW6       30.18S
SALT POINT       N/A     55  51  86 VRB3      30.17S
$$

SELECTED SITES ACROSS THE REGION

CITY           SKY/WX    TMP DP  RH WIND       PRES   REMARKS
HOUSTON BUSH   MOCLDY    71  27  19 SW5       30.16F
HOUSTON HOBBY  PTCLDY    69  33  26 W8        30.17F
GALVESTON      CLEAR     63  54  72 SW10      30.19F
COLLEGE STAT   PTCLDY    71  35  26 S3        30.16F
CONROE         CLEAR     70  28  21 SW6       30.16S
HUNTSVILLE     CLOUDY    69  35  28 SW5       30.15S
LUFKIN         CLOUDY    61  44  53 S7        30.13S
SHREVEPORT     PTCLDY    70  23  17 SW10      30.05S
MONROE         CLEAR     62  34  35 S7        30.06F
NATCHEZ MS     CLEAR     63  39  41 SW7       30.10F
BATON ROUGE    CLEAR     63  37  38 SW8       30.13S
N.O. INTL ARPT MOCLDY    64  39  39 SW8       30.14F
SLIDELL        CLEAR     62  40  44 SW3       30.13F
$$

MARINE REPORTS

STATION/POSITION TIME  SKY/WX   TEMP    WIND        PRES    VSBY
                                AIR SEA DIR/SP/G
                 (UTC)          (F)     (DEG/KT/KT) (MB)    (MI)
BUOY 30 S HIGH I 2150            62 61  240/ 12/ 14 1022.6
WVE H/P(F/S)=  2/ 4

SEA RIM ST PARK  2300            60     230/ 10/ 13 1022.2F
PORT ARTHUR      2242            63 57  210/  6/  9 1021.6F
SABINE PASS N    2242            60 58  220/  6/ 10 1023.2F
TEXAS POINT      NOT AVBL
CALCASIEU PASS   2242            60 54  250/ 11/ 13 1020.4F
LK CHARLES BEACH 2242            69 57              1020.3F
MARSH ISLAND     2200            63                   N/A
FRESH WATER LOCK 2242            62 53  230/  7/ 10 1022.0R
AMERADA PASS     2242            57 54  200/  3/  7 1022.0F
$$




USA.gov is the U.S. government's official web portal to all federal, state and local government web resources and services.